Greenwood, SC

4:04 PM EDT on April 30, 2017 (GMT -0400)
Greenwood County

Weather History for KGRD - August, 2013

Change the Weather History Date:

Friday, August 2, 2013

  Actual Average (KAND) Record (KAND)
Temperature  
Mean Temperature 78 °F -  
Max Temperature 89 °F 88 °F 100 °F (1957)
Min Temperature 68 °F 69 °F 60 °F (1997)
Cooling Degree Days 12    
Growing Degree Days 28 (Base 50)    
Moisture  
Dew Point 71 °F    
Average Humidity 79    
Maximum Humidity 97    
Minimum Humidity 61    
Precipitation  
Precipitation 0.02 in - - ()
Sea Level Pressure  
Sea Level Pressure 30.00 in    
Wind  
Wind Speed 2 mph (East)    
Max Wind Speed 6 mph    
Max Gust Speed -    
Visibility 10 miles    
Events      
Averages and records for this station are not official NWS values.
T = Trace of Precipitation, MM = Missing Value Source: NWS Daily Summary

Daily Weather History Graph

Daily Weather History Graph

Search for Another Location

Airport or City:

Trip Planner

Search our weather history database for the weather conditions in past years. The results will help you decide how hot, cold, wet, or windy it might be!

Date:

Astronomy

Aug. 02, 2013 Rise Set
Actual Time 6:40 AM EDT 8:28 PM EDT
Civil Twilight 6:13 AM EDT 8:56 PM EDT
Nautical Twilight 5:39 AM EDT 9:29 PM EDT
Astronomical Twilight 5:04 AM EDT 10:04 PM EDT
Moon 3:02 AM EDT (8/2) 5:23 PM EDT (8/2)
Length of Visible Light 14h 43m
Length of Day
13h 48m
Waning Crescent, 16% of the Moon is Illuminated
Aug 2
Waning Crescent
Aug 6
New
Aug 14
First Quarter
Aug 20
Full
Aug 28
Last Quarter

Hourly Weather History & Observations

Time (EDT) Temp. Heat Index Dew Point Humidity Pressure Visibility Wind Dir Wind Speed Gust Speed Precip Events Conditions
12:56 AM 72.0 °F - 68.0 °F 87% 29.94 in 10.0 mi Calm Calm - N/A   Partly Cloudy
1:56 AM 70.0 °F - 68.0 °F 93% 29.94 in 10.0 mi Calm Calm - N/A   Clear
2:56 AM 71.1 °F - 68.0 °F 90% 29.95 in 10.0 mi Calm Calm - N/A   Mostly Cloudy
3:56 AM 70.0 °F - 68.0 °F 93% 29.94 in 10.0 mi Calm Calm - N/A   Clear
4:56 AM 69.1 °F - 66.9 °F 93% 29.94 in 10.0 mi Calm Calm - N/A   Clear
5:56 AM 68.0 °F - 66.0 °F 93% 29.96 in 10.0 mi South 3.5 mph - N/A   Clear
6:56 AM 68.0 °F - 66.0 °F 93% 29.98 in 10.0 mi Calm Calm - N/A   Clear
7:56 AM 71.1 °F - 69.1 °F 93% 30.00 in 10.0 mi Calm Calm - N/A   Mostly Cloudy
8:56 AM 75.9 °F - 71.1 °F 85% 30.01 in 10.0 mi NNE 5.8 mph - N/A   Clear
9:56 AM 79.0 °F - 70.0 °F 74% 30.02 in 10.0 mi ENE 3.5 mph - N/A   Clear
10:56 AM 82.0 °F 85.9 °F 70.0 °F 67% 30.03 in 10.0 mi East 4.6 mph - N/A   Partly Cloudy
11:56 AM 84.0 °F 89.0 °F 71.1 °F 65% 30.03 in 10.0 mi East 3.5 mph - N/A   Mostly Cloudy
12:56 PM 86.0 °F 92.2 °F 72.0 °F 63% 30.02 in 10.0 mi Variable 4.6 mph - N/A   Mostly Cloudy
1:17 PM 86.0 °F 91.8 °F 71.6 °F 62% 30.05 in 10.0 mi NE 4.6 mph - N/A   Mostly Cloudy
1:43 PM 86.0 °F 91.8 °F 71.6 °F 62% 30.05 in 10.0 mi Calm Calm - N/A   Mostly Cloudy
1:56 PM 84.9 °F 90.1 °F 71.1 °F 63% 30.02 in 10.0 mi Variable 3.5 mph - N/A   Scattered Clouds
2:56 PM 84.9 °F 90.7 °F 72.0 °F 65% 30.02 in 10.0 mi Variable 3.5 mph - N/A   Overcast
3:56 PM 86.0 °F 93.0 °F 73.0 °F 65% 30.00 in 10.0 mi ESE 5.8 mph - N/A   Mostly Cloudy
4:56 PM 86.0 °F 92.2 °F 72.0 °F 63% 29.99 in 10.0 mi Calm Calm - N/A   Mostly Cloudy
5:56 PM 87.1 °F 93.6 °F 72.0 °F 61% 29.99 in 10.0 mi East 3.5 mph - N/A   Overcast
6:56 PM 84.9 °F 92.1 °F 73.9 °F 69% 29.99 in 10.0 mi Calm Calm - N/A   Mostly Cloudy
7:56 PM 79.0 °F - 73.9 °F 84% 30.00 in 10.0 mi East 4.6 mph - 0.02 in   Overcast
8:56 PM 77.0 °F - 73.9 °F 90% 30.01 in 10.0 mi Calm Calm - N/A   Scattered Clouds
9:56 PM 75.9 °F - 73.9 °F 94% 30.03 in 8.0 mi Calm Calm - N/A   Clear
10:56 PM 73.9 °F - 73.0 °F 97% 30.04 in 8.0 mi SSE 3.5 mph - N/A   Clear
11:56 PM 75.0 °F - 72.0 °F 90% 30.04 in 9.0 mi Calm Calm - N/A   Clear